Tracking 30107 objects as of 18-Jan-2025
HD Live streaming from Space Station
objects crossing your sky now

COSMOS 1363

Track COSMOS 1363 now!
10-day predictions
COSMOS 1363 is classified as:


NORAD ID: 13166
Int'l Code: 1982-040G
Perigee: 1,481.4 km
Apogee: 1,511.0 km
Inclination: 74.0 °
Period: 115.7 minutes
Semi major axis: 7867 km
RCS: 0.7318 m2 (medium)
Launch date: May 6, 1982
Source: Commonwealth of Independent States (former USSR) (CIS)
Launch site: PLESETSK MISSILE AND SPACE COMPLEX (PKMTR)
Your satellite tracking list
Your tracking list is empty




NASA's NSSDC Master Catalog

Two Line Element Set (TLE):
1 13166U 82040G   25017.81814400 -.00000003  00000-0  85936-4 0  9991
2 13166  74.0114 144.2437 0018835 119.8991 354.2593 12.44151888939446
Source of the keplerian elements: AFSPC